Location: B?ogocice
(50.2413°N, 20.2361°E)
Time: 23:24:05
(UTC+00:00)

SL-4 R/B - Pass Details

Date: 15 June 2024
Orbit: 411 x 597 km, 51.6° (Epoch: 18 July)

Event Time Altitude Azimuth Distance (km) Brightness Sun altitude
Rises 00:16:59 0° 282° (WNW) 2,715 5.4 -13.3°
Reaches altitude 10° 00:20:05 10° 257° (WSW) 1,857 4.4 -13.1°
Enters shadow 00:20:51 12° 247° (WSW) 1,727 4.1 -13.1°
